Tracking 30922 objects as of 2-Jul-2025
HD Live streaming from Space Station
objects crossing your sky now

SATELIOT_2

Track SATELIOT_2 now!
10-day predictions


NORAD ID: 60534
Int'l Code: 2024-149BU
Perigee: 590.2 km
Apogee: 592.5 km
Inclination: 97.7 °
Period: 96.4 minutes
Semi major axis: 6962 km
RCS: Unknown
Launch date: August 16, 2024
Source: Spain (SPN)
Launch site: AIR FORCE WESTERN TEST RANGE (AFWTR)
Your satellite tracking list
NOAA 16 DEB
Track 1 satellite(s)




NASA's NSSDC Master Catalog

Two Line Element Set (TLE):
1 60534U 24149BU  25182.74163674  .00001488  00000-0  14344-3 0  9994
2 60534  97.7182 258.8451 0001650 113.4025 246.7369 14.94395384 47597
Source of the keplerian elements: AFSPC